CZ-4C DEB, 45483

Orbit data source: Space-Track

CZ-4C DEB, 45483 is space debris in LEO originally from a launch on Tue, 10 Apr 2018 UTC launched from the Jiuquan Satellite Launch Center, China (JSC). Debris objects in space refer to the collection of defunct objects orbiting the Earth. Examples of debris include non-operational satellites, rocket bodies, and fragments generated from explosions, collisions, or faulty payload assembly.

Loading next visibility...
Identifier
45483, 2018-034L
Orbit
LEO
Country
Flag of CNCN / PRC
Related business
Manufacturer
Unknown
Mission
Spacecraft
Bus & Motor
Unknown
Mass
Unknown
Launch date (UTC)
2018-04-10 (8 years ago)
Launch vehicle
Unknown
Launch site
Jiuquan Satellite Launch Center, China (JSC)
Object type
Payload
Rocket body
Debris
Shape & HBR
Unknown shape, 0.1 m
Radar Cross Section
Small (<0.1 m²)

Expand to show TLE details & history
Last TLE update: 6 days ago

TLE from 6 days ago
0 CZ-4C DEB
1 45483U 18034L   25287.51134615 -.00000018  00000-0  10304-3 0  9991
2 45483  63.4015  19.7060 0248155   6.4696 353.9435 13.44282991331488
Epoch: 2025-10-14T12:16Z
TLE epoch observation values (Epoch: 2025-10-14T12:16:20.307Z)
Latitude
0.00002°
Longitude
172.32267°
Altitude
910.795 km
Speed
7.488 km/s
True Right ascension
01h 18m 49s
True Declination
0° 00' 00"
Sunlit
Object was in full shadow at epoch
Visualization orbit readout
Latitude
Unknown
Longitude
Unknown
Altitude
Unknown
Speed
Unknown
Apparent Right ascension
Unknown
Apparent Declination
Unknown
Sunlit
N/A
Visualization observer readout
Local Sidereal Time
02:32:22
Azimuth
Unknown
Elevation
Unknown
Doppler factor
Unknown
Orbital elements
Apogee altitude
1,277.576 km
Perigee altitude
906.816 km
Semi-major axis
7,470.333 km
Eccentricity
0.02482
Inclination
63.4015°
RAAN
19.706°
Arg. of periapsis
6.4696°
True anomaly
353.63393°
Mean anomaly
353.9435°
Eccentric anomaly
353.78969°
Mean motion
3.3615 °/min
Orbital period
107.1 mins
BSTAR
0.00010304
Loading maneuver chart data...
Computing Atmospheric mass density...
Loading historical data...
Loading historical data...
Loading historical data...
Loading historical data...
Loading historical data...
Loading historical data...
Loading historical data...

Documentation

Showing up to 5 results
|